This is the latest recevied weather packets stored in our database for station/object EA3FHP. If no packets are shown the sender has not sent any weather packets the latest 10 day(s).
| Time | Temp. | Humidity | Pressure | Rain* | Wind** | Luminosity | Snow |
|---|---|---|---|---|---|---|---|
| 1777732203 | 18.33° C | 53% | 1022 hPa | 0 mm | - | - | - |
| 1777731603 | 18.89° C | 54% | 1022.1 hPa | 0 mm | - | - | - |
| 1777731003 | 19.44° C | 55% | 1022.4 hPa | 0 mm | - | - | - |
| 1777730403 | 19.44° C | 57% | 1022.4 hPa | 0 mm | - | - | - |
| 1777729803 | 18.89° C | 57% | 1022.5 hPa | 0 mm | - | - | - |
| 1777729203 | 19.44° C | 62% | 1022.6 hPa | 0 mm | - | - | - |
| 1777728603 | 18.89° C | 60% | 1022.8 hPa | 0 mm | - | - | - |
| 1777728003 | 18.89° C | 59% | 1022.9 hPa | 0 mm | - | - | - |
| 1777727403 | 18.89° C | 60% | 1023.2 hPa | 0 mm | - | - | - |
| 1777726803 | 18.33° C | 63% | 1023.3 hPa | 0 mm | - | - | - |
| 1777726203 | 19.44° C | 58% | 1023.4 hPa | 0 mm | - | - | - |
| 1777725603 | 18.89° C | 63% | 1023.3 hPa | 0 mm | - | - | - |
| 1777725003 | 17.78° C | 65% | 1023.7 hPa | 0 mm | - | - | - |
| 1777724403 | 17.78° C | 62% | 1023.6 hPa | 0 mm | - | - | - |
| 1777723803 | 17.78° C | 67% | 1023.8 hPa | 0 mm | - | - | - |
| 1777723203 | 16.67° C | 65% | 1023.8 hPa | 0 mm | - | - | - |
| 1777722603 | 16.67° C | 67% | 1024 hPa | 0 mm | - | - | - |
| 1777722003 | 16.67° C | 71% | 1023.9 hPa | 0 mm | - | - | - |
| 1777721403 | 16.67° C | 70% | 1024 hPa | 0 mm | - | - | - |
| 1777720803 | 16.67° C | 75% | 1024.3 hPa | 0 mm | - | - | - |
| 1777720203 | 15.56° C | 72% | 1024.2 hPa | 0 mm | - | - | - |
| 1777719603 | 15.56° C | 74% | 1024.5 hPa | 0 mm | - | - | - |
| 1777719004 | 15.56° C | 73% | 1024.7 hPa | 0 mm | - | - | - |
| 1777718403 | 15° C | 75% | 1024.8 hPa | 0 mm | - | - | - |
| 1777717803 | 15.56° C | 77% | 1024.8 hPa | 0 mm | - | - | - |
* Rain latest hour (hover to see other rain measurements)
** Current wind speed in m/s (hover to see current wind gust speed)